This is the latest recevied weather packets stored in our database for station/object WO5CID. If no packets are shown the sender has not sent any weather packets the latest 10 day(s).
| Time | Temp. | Humidity | Pressure | Rain* | Wind** | Luminosity | Snow |
|---|---|---|---|---|---|---|---|
| 1778201685 | 27.78° C | 57% | 1012.5 hPa | 0 mm | - | 0 W/m² | - |
| 1778201381 | 27.78° C | 57% | 1012.5 hPa | 0 mm | - | 0 W/m² | - |
| 1778201077 | 27.78° C | 56% | 1012.4 hPa | 0 mm | - | 0 W/m² | - |
| 1778200774 | 28.33° C | 54% | 1012.3 hPa | 0 mm | - | 0 W/m² | - |
| 1778200471 | 28.33° C | 54% | 1012.7 hPa | 0 mm | - | 0 W/m² | - |
| 1778200169 | 28.33° C | 53% | 1012.5 hPa | 0 mm | - | 0 W/m² | - |
| 1778199865 | 28.89° C | 53% | 1012.5 hPa | 0 mm | - | 0 W/m² | - |
| 1778199561 | 28.89° C | 52% | 1012.5 hPa | 0 mm | - | 1 W/m² | - |
| 1778199257 | 28.89° C | 51% | 1012.4 hPa | 0 mm | - | 1 W/m² | - |
| 1778198953 | 29.44° C | 50% | 1012.4 hPa | 0 mm | - | 2 W/m² | - |
| 1778198644 | 29.44° C | 50% | 1012.2 hPa | 0 mm | - | 4 W/m² | - |
| 1778198341 | 29.44° C | 49% | 1012.2 hPa | 0 mm | - | 6 W/m² | - |
| 1778198038 | 29.44° C | 49% | 1012.2 hPa | 0 mm | - | 8 W/m² | - |
| 1778197735 | 30° C | 48% | 1012.3 hPa | 0 mm | - | 11 W/m² | - |
| 1778197432 | 30° C | 47% | 1012.1 hPa | 0 mm | - | 11 W/m² | - |
| 1778197129 | 30° C | 47% | 1012 hPa | 0 mm | - | 12 W/m² | - |
| 1778196826 | 30.56° C | 46% | 1012.2 hPa | 0 mm | - | 14 W/m² | - |
| 1778196524 | 30.56° C | 47% | 1012 hPa | 0 mm | - | 17 W/m² | - |
| 1778196220 | 30.56° C | 46% | 1012 hPa | 0 mm | - | 22 W/m² | - |
| 1778195918 | 30.56° C | 45% | 1012.1 hPa | 0 mm | - | 29 W/m² | - |
| 1778195614 | 31.11° C | 45% | 1012 hPa | 0 mm | - | 47 W/m² | - |
| 1778195310 | 31.11° C | 44% | 1011.9 hPa | 0 mm | - | 62 W/m² | - |
| 1778195008 | 31.11° C | 44% | 1011.7 hPa | 0 mm | - | 63 W/m² | - |
| 1778194707 | 31.67° C | 43% | 1011.8 hPa | 0 mm | - | 58 W/m² | - |
| 1778194404 | 31.67° C | 41% | 1011.7 hPa | 0 mm | - | 54 W/m² | - |
* Rain latest hour (hover to see other rain measurements)
** Current wind speed in m/s (hover to see current wind gust speed)